SCP
0 0 0 0 0 0 0 0 0 0 0 0 0 0 0 0 0 0 0 0 0 0 0 -0 -0 0 -0 -0 -0 -0 0 0 0 0 0 0 0 0 0 0 0 0 0 0
0 0 0 0 0 0 0 0 0 0 0 0 0 0 0 0 0 0 0 0 0 0 0 0 0 0 0 0 0 0 0 0 0 0 0 0 0 0 0 0 0 0 0 0
0 0 0 0 0 0 0 0 0 0 0 0 0 0 0 0 0 0 0 0 0 0 0 0 0 0 0 0 0 0 0 0 0 0 0 0 0 0 0 0 0 0 0 0
0 0 0 0 0 0 -0 0 0 0 0 0 0 0 0 0 0 0 0 0 0 0 0 0 0 0 0 0 0 0 0 0 -0 -0 0 0 0 0 0 0 0 0 0 0
0 0 0 0 0 -0 0 0 0 0 0 0 0 0 0 0 0 0 0 0 0 0 0 0 0 0 -0 -0 0 0 0 -0 -0 -0 0 0 0 0 0 0 0 0 0 0
0 0 0 0 0 -0 0 -0 0 0 0 0 -0 0 0 0 0 0 0 0 0 0 0 0 0 0 0 0 -0 0 0 -0 -0 0 0 0 0 0 0 0 0 0 0 0
0 0 0 0 0 0 -0 -0 -0 0 0 0 0 0 0 0 -0 0 0 0 0 0 -0 0 0 0 0 0 -0 0 0 0 0 0 0 0 0 0 0 0 0 0 0 0
0 0 0 0 0 0 0 -0 -0 0 0 0 0 0 0 -0 0 0 0 0 0 0 0 0 0 0 0 0 -0 -0 0 0 0 0 0 0 0 0 0 0 0 0 0 0
0 0 0 0 -0 -0 0 0 -0 0 0 0 0 0 0 0 0 0 0 0 0 0 0 0 0 0 -0 -0 -0 -0 -0 -0 0 0 0 0 0 0 0 0 0 0 0 0
0 0 0 0 -0 0 -0 0 -0 0 0 0 0 0 0 0 0 0 0 0 0 0 -0 -0 -0 -0 -0 -0 0 0 -0 -0 -0 -0 0 0 0 0 0 0 0 -0 -0 -0
0 0 -0 0 0 0 -0 -0 0 -0 -0 0 0 0 0 0 0 0 0 0 0 0 -0 -0 -0 -0 -0 0 0 0 0 -0 -0 -0 -0 -0 -0 0 0 -0 -0 -0 -0 -0
0 0 0 0 0 0 0 0 0 -0 -0 -0 0 0 0 0 0 0 0 0 0 0 0 -0 -0 -0 -0 0 0 0 0 -0 -0 -0 -0 -0 -0 -0 -0 0 0 -0 -0 -0
0 0 0 0 0 0 0 0 0 0 0 0 0 0 0 0 0 0 -0 0 0 0 0 0 0 0 0 -0 0 0 0 0 -0 -0 0 -0 -0 0 -0 -0 0 0 -0 -0
0 0 0 0 0 0 0 0 0 0 0 0 0 0 0 0 0 0 0 0 0 0 0 0 -0 -0 -0 0 0 0 0 0 0 0 0 0 -0 -0 -0 0 0 0 0 0
0 0 0 0 0 0 0 0 0 0 0 0 0 0 0 0 0 0 0 0 0 0 0 0 0 0 0 0 0 0 0 0 0 0 0 0 0 0 0 0 0 0 0 0
0 0 0 0 0 0 0 0 0 0 0 0 0 0 0 0 0 0 0 0 0 0 0 0 0 0 0 0 0 0 0 0 0 0 0 0 0 0 0 0 0 0 0 0
0 0 0 0 0 0 0 0 0 -0 0 0 0 0 0 0 0 0 0 0 0 0 -0 -0 -0 -0 -0 0 0 -0 0 -0 0 0 0 0 0 0 0 0 0 0 0 0
0 0 0 0 0 0 0 0 0 0 0 0 0 0 0 0 0 0 0 0 0 0 0 0 0 0 0 0 0 0 0 -0 0 0 0 0 0 0 0 0 0 0 0 0
0 0 0 0 0 0 0 0 0 0 0 0 0 0 0 0 0 0 0 0 0 0 0 0 0 0 0 0 0 0 0 0 0 0 0 0 0 0 0 0 0 0 0 0
0 0 0 0 0 0 0 0 0 0 0 0 0 0 0 0 0 0 0 0 0 0 0 0 0 0 0 0 -0 0 0 0 0 0 -0 -0 0 0 0 0 0 0 0 0
0 0 0 0 0 0 0 0 0 0 0 0 0 0 0 0 0 0 0 0 0 0 0 0 0 0 0 0 0 0 0 0 0 0 0 0 0 0 0 0 0 0 0 0
0 0 0 0 0 0 0 0 0 0 0 0 0 0 0 0 0 0 0 0 0 0 0 0 0 0 0 0 0 0 0 0 0 0 0 0 0 0 0 0 0 0 0 0
0 0 0 0 0 0 0 0 0 0 0 0 0 0 0 0 0 0 0 0 0 0 0 0 0 0 0 0 0 0 0 0 0 0 0 0 0 0 0 0 0 0 0 0
0 0 0 0 0 0 0 0 0 0 0 0 0 0 0 0 0 0 0 0 0 0 0 0 0 0 0 0 0 0 0 0 0 0 0 0 0 0 0 0 0 0 0 0
-0 0 0 0 0 0 0 0 0 0 0 0 0 0 0 0 0 0 0 0 0 0 0 0 0 0 0 0 0 0 0 0 0 0 0 0 0 0 0 0 0 0 0 0
-0 -0 0 0 0 0 0 0 0 0 0 0 0 0 0 0 0 0 0 0 0 0 0 0 0 0 0 0 0 0 0 0 0 0 0 0 0 0 0 0 0 0 0 0
0 0 0 0 0 0 0 0 0 0 0 0 0 0 0 0 0 0 0 0 0 0 0 0 0 0 0 0 0 0 0 0 0 0 0 0 0 0 0 0 0 0 0 0
Wind_Speed_500mb
58 54 51 48 48 49 35 11 2 25 21 6 2 4 14 36 33 43 25 22 24 26 39 34 28 22 14 39 29 13 18 12 24 28 8 7 6 16 21 10 11 13 9 9
46 42 40 39 41 42 30 8 8 24 17 8 11 22 23 23 31 29 21 16 19 23 19 19 24 38 27 56 35 35 17 11 17 8 8 7 7 15 17 5 2 7 9 11
37 37 37 37 36 33 18 7 4 13 24 14 13 17 13 21 32 18 22 14 23 33 16 20 24 37 25 59 35 51 18 12 19 9 11 6 14 39 19 12 7 10 10 33
38 37 37 37 34 28 17 12 9 10 9 15 16 21 16 20 24 20 24 12 32 24 11 11 19 26 28 37 49 31 10 11 23 28 43 52 41 39 46 28 15 9 28 33
37 36 39 41 38 24 26 8 7 13 11 19 16 22 16 18 18 9 14 18 34 17 6 13 16 21 19 15 27 25 10 15 15 13 32 51 42 42 27 27 26 33 34 25
44 43 46 43 41 27 15 14 12 9 21 13 9 12 17 14 24 14 19 23 28 13 11 34 39 13 5 5 23 23 18 11 5 7 10 13 23 38 24 25 25 4 8 14
48 47 48 50 43 41 27 23 14 10 7 11 9 14 20 22 20 10 24 24 15 16 62 48 33 36 28 22 18 30 18 10 7 5 14 13 1 12 20 26 20 21 23 14
53 55 56 55 52 43 25 15 12 10 9 14 12 30 18 25 11 7 20 18 22 48 31 10 10 2 4 7 23 31 27 7 10 6 14 13 7 10 10 10 8 10 13 8
56 58 59 59 55 41 39 37 22 13 12 20 15 13 22 12 20 10 7 21 27 24 7 9 19 14 11 15 33 33 30 32 9 11 11 11 11 13 14 11 4 6 4 6
52 52 55 54 53 48 46 40 21 18 23 20 19 11 9 15 13 9 9 28 24 31 13 10 12 11 9 15 20 20 21 15 27 20 11 8 8 16 13 8 5 6 1 6
42 48 52 51 46 43 43 43 35 55 29 27 30 30 16 14 15 11 22 12 12 17 13 10 8 11 10 5 3 11 19 15 12 11 9 9 13 12 8 4 7 8 8 13
50 48 41 39 44 43 33 37 44 52 41 20 34 38 42 38 23 12 18 5 6 12 4 8 5 10 9 5 10 4 9 7 6 8 6 5 11 9 9 10 12 11 15 16
40 43 46 44 31 28 36 31 15 13 18 23 22 20 34 47 40 26 8 9 11 10 9 8 5 15 7 11 13 8 5 3 6 9 5 10 11 14 18 16 20 21 23 25
38 39 40 37 35 23 19 32 30 12 9 5 7 29 28 32 42 35 22 8 10 15 11 11 8 6 10 7 3 8 6 7 9 9 6 26 12 17 22 24 26 29 31 33
35 34 29 29 27 29 17 13 32 21 6 5 5 11 35 19 22 31 35 19 14 9 8 10 6 5 2 0 4 11 4 7 9 7 13 13 29 26 36 41 42 38 38 41
32 33 29 24 23 31 16 13 19 20 4 5 4 4 18 26 10 15 26 24 25 14 9 8 7 5 2 9 8 27 28 29 26 16 29 43 53 50 38 37 38 38 43 47
29 28 21 21 19 23 18 13 25 16 6 3 4 1 15 43 23 13 13 19 16 11 7 9 4 3 3 6 15 47 48 42 39 38 34 35 22 35 50 53 50 49 53 54
20 18 12 11 19 16 19 22 31 20 9 12 7 10 8 40 16 13 23 13 7 16 6 5 6 2 4 6 34 34 48 46 30 36 48 54 55 53 48 48 48 50 53 50
12 11 11 11 17 13 15 16 19 26 21 11 10 13 10 29 15 12 12 11 4 7 6 5 6 2 7 16 44 39 52 43 52 58 53 44 47 57 57 53 53 55 60 56
9 13 10 11 17 17 14 14 15 16 18 14 10 9 8 20 16 8 18 8 5 2 4 10 4 4 5 23 59 41 61 57 56 52 57 58 58 57 59 59 55 57 63 64
10 8 10 13 26 18 14 17 18 17 9 14 10 11 15 16 7 8 11 6 6 3 5 7 3 2 21 54 64 58 61 63 58 51 53 53 52 57 60 62 60 60 59 61
17 16 18 17 18 19 14 9 9 11 9 18 18 23 10 8 8 7 7 5 3 5 12 4 4 6 49 68 68 66 63 64 65 58 60 59 55 54 56 61 62 62 59 58
16 11 11 15 20 16 13 17 8 13 20 17 32 16 11 8 5 7 6 7 6 9 3 7 4 46 68 70 69 68 65 64 62 61 58 55 55 54 51 56 55 56 58 55
13 13 14 10 10 11 6 10 17 19 23 34 29 11 7 7 7 5 8 6 5 11 10 10 20 64 74 72 70 69 73 69 68 64 62 61 62 59 55 52 52 51 50 52
13 13 9 7 4 9 19 26 25 21 32 23 10 8 4 5 5 5 7 14 11 8 11 18 62 75 73 74 73 72 71 71 68 64 63 64 59 58 62 58 54 53 53 51
14 15 11 9 5 16 28 35 27 42 33 11 6 6 6 10 7 12 10 16 8 14 31 64 72 74 76 74 72 71 69 70 64 62 62 61 62 62 64 59 55 57 59 58
10 10 19 21 16 15 26 31 38 39 24 14 8 10 10 11 8 10 7 9 18 59 67 66 66 72 77 75 74 72 73 71 63 65 63 61 60 61 60 57 61 61 59 53
Wind_Direction_500mb
333 334 338 341 342 347 359 32 22 351 350 312 27 334 350 324 330 335 316 301 314 317 332 301 294 281 285 0 333 281 240 186 230 207 72 49 265 228 209 218 188 229 268 123
342 348 352 356 356 354 357 41 26 6 37 38 344 324 318 344 337 352 348 321 352 359 304 303 307 315 347 4 5 344 337 334 222 149 131 79 30 12 347 325 61 189 210 148
8 9 10 7 4 5 23 41 29 30 51 47 348 357 360 337 338 331 353 329 349 340 308 340 324 345 328 344 1 346 53 62 58 343 29 355 41 14 2 337 215 103 47 135
19 20 18 15 13 22 65 35 53 15 8 6 353 1 3 343 356 352 355 353 350 339 291 322 0 0 336 341 358 343 64 77 81 88 74 73 60 45 44 54 8 28 134 126
41 38 27 20 19 28 49 55 27 58 38 345 1 8 22 334 342 310 338 343 335 8 4 5 321 343 7 36 325 345 13 134 123 96 81 72 56 30 43 40 58 75 94 89
44 42 38 38 39 47 72 78 74 97 22 350 350 12 339 319 339 257 263 327 318 287 338 314 294 272 189 1 6 340 334 164 203 160 266 303 31 8 30 53 39 3 84 96
49 49 49 47 45 47 67 93 90 83 41 29 21 347 321 298 309 273 304 321 323 333 313 306 265 247 239 258 20 20 340 329 7 74 318 50 76 57 74 76 43 61 82 74
54 53 53 50 50 49 52 82 95 100 83 341 2 345 335 312 319 270 269 292 300 318 314 312 331 66 24 330 3 14 358 298 63 85 58 151 130 41 1 349 51 29 78 52
50 50 49 49 47 47 56 72 91 96 107 15 317 319 342 343 341 326 279 322 338 335 277 3 20 25 320 341 337 1 1 26 62 34 54 52 33 20 350 302 82 149 78 26
50 48 45 49 52 49 56 68 81 93 95 27 26 16 321 328 308 280 296 337 345 354 12 46 20 41 323 10 6 341 346 4 38 43 87 93 14 338 330 285 44 170 265 308
47 48 48 48 47 46 44 69 74 84 95 61 50 40 25 351 350 343 331 307 18 358 40 27 22 30 29 342 47 346 5 340 18 358 61 49 1 306 329 348 259 245 266 292
50 46 39 35 39 45 41 69 67 75 82 81 51 39 31 25 9 335 0 55 352 7 336 42 49 34 23 276 34 16 16 16 337 17 23 325 297 265 278 295 276 285 283 287
36 34 32 27 23 31 39 43 50 60 77 65 37 18 30 33 28 27 7 40 20 21 67 34 60 72 318 17 25 309 119 156 307 309 172 272 269 264 268 271 270 274 275 281
20 15 10 13 18 16 23 34 42 57 94 85 51 29 30 29 31 34 36 28 37 54 41 57 47 69 3 44 9 9 3 286 337 260 264 308 280 282 290 288 288 283 283 281
5 7 0 359 9 12 15 23 31 28 89 92 132 32 26 18 29 36 41 38 53 36 50 46 58 62 296 87 250 26 346 340 336 309 315 271 288 298 300 296 294 290 283 284
346 354 358 10 16 14 20 4 2 10 73 120 165 157 17 19 11 19 35 42 45 57 61 78 75 48 355 18 11 23 352 307 296 267 293 291 297 297 297 288 300 297 287 286
329 345 3 23 27 25 51 61 6 23 57 61 104 112 359 11 25 7 17 21 39 57 77 57 49 66 270 40 14 340 336 332 315 306 302 304 315 303 306 304 305 298 292 292
322 343 12 28 25 35 44 40 26 20 52 56 34 335 312 9 356 1 1 356 17 31 69 59 5 257 250 28 349 341 346 337 326 326 309 304 304 305 313 309 306 299 298 301
343 1 38 38 20 23 21 29 36 36 52 82 58 354 337 344 8 348 341 355 20 20 39 38 313 141 48 327 338 327 347 334 321 328 328 323 314 313 314 314 311 304 307 307
51 47 41 33 1 18 28 26 20 28 37 51 76 353 330 336 339 0 348 7 30 2 32 325 274 60 352 360 352 334 339 335 335 324 325 323 315 313 312 309 308 301 304 308
50 56 59 32 32 32 33 28 29 357 43 17 2 13 336 343 340 330 6 332 336 311 35 330 10 105 349 350 347 340 338 340 334 329 324 319 313 310 309 308 306 305 304 301
78 95 72 34 33 27 41 13 5 17 3 353 353 339 330 320 340 306 340 313 277 359 332 281 5 25 350 345 342 340 338 336 333 331 327 326 322 318 313 311 312 312 309 304
64 53 52 25 20 33 29 356 337 327 350 359 335 327 331 323 334 290 310 320 358 304 271 8 8 347 341 339 337 335 336 336 334 330 329 326 325 323 321 316 320 320 317 317
54 48 33 40 22 30 349 313 308 308 313 325 326 304 317 321 315 316 310 15 283 358 341 355 338 335 332 333 333 333 333 335 333 334 333 332 331 332 332 329 326 322 320 319
67 60 59 65 59 1 339 339 337 333 329 330 328 291 312 323 310 348 327 352 353 11 337 319 325 326 328 329 331 330 331 331 332 334 333 332 335 337 334 335 335 333 329 329
57 56 86 102 67 10 360 354 348 347 351 3 353 309 341 36 335 1 19 339 316 327 320 319 320 322 324 326 326 328 327 328 332 333 333 333 338 336 331 332 330 332 332 330
64 72 94 98 82 39 9 4 354 360 8 9 346 25 0 290 344 349 359 342 316 312 313 314 316 318 319 322 324 327 329 334 332 334 337 335 337 336 335 332 335 337 337 334
Wind_Speed_850mb
58 54 51 48 48 49 35 11 2 25 21 6 2 4 14 36 33 43 25 22 24 26 39 34 28 22 14 39 29 13 18 12 24 28 8 7 6 16 21 10 11 13 9 9
46 42 40 39 41 42 30 8 8 24 17 8 11 22 23 23 31 29 21 16 19 23 19 19 24 38 27 56 35 35 17 11 17 8 8 7 7 15 17 5 2 7 9 11
37 37 37 37 36 33 18 7 4 13 24 14 13 17 13 21 32 18 22 14 23 33 16 20 24 37 25 59 35 51 18 12 19 9 11 6 14 39 19 12 7 10 10 33
38 37 37 37 34 28 17 12 9 10 9 15 16 21 16 20 24 20 24 12 32 24 11 11 19 26 28 37 49 31 10 11 23 28 43 52 41 39 46 28 15 9 28 33
37 36 39 41 38 24 26 8 7 13 11 19 16 22 16 18 18 9 14 18 34 17 6 13 16 21 19 15 27 25 10 15 15 13 32 51 42 42 27 27 26 33 34 25
44 43 46 43 41 27 15 14 12 9 21 13 9 12 17 14 24 14 19 23 28 13 11 34 39 13 5 5 23 23 18 11 5 7 10 13 23 38 24 25 25 4 8 14
48 47 48 50 43 41 27 23 14 10 7 11 9 14 20 22 20 10 24 24 15 16 62 48 33 36 28 22 18 30 18 10 7 5 14 13 1 12 20 26 20 21 23 14
53 55 56 55 52 43 25 15 12 10 9 14 12 30 18 25 11 7 20 18 22 48 31 10 10 2 4 7 23 31 27 7 10 6 14 13 7 10 10 10 8 10 13 8
56 58 59 59 55 41 39 37 22 13 12 20 15 13 22 12 20 10 7 21 27 24 7 9 19 14 11 15 33 33 30 32 9 11 11 11 11 13 14 11 4 6 4 6
52 52 55 54 53 48 46 40 21 18 23 20 19 11 9 15 13 9 9 28 24 31 13 10 12 11 9 15 20 20 21 15 27 20 11 8 8 16 13 8 5 6 1 6
42 48 52 51 46 43 43 43 35 55 29 27 30 30 16 14 15 11 22 12 12 17 13 10 8 11 10 5 3 11 19 15 12 11 9 9 13 12 8 4 7 8 8 13
50 48 41 39 44 43 33 37 44 52 41 20 34 38 42 38 23 12 18 5 6 12 4 8 5 10 9 5 10 4 9 7 6 8 6 5 11 9 9 10 12 11 15 16
40 43 46 44 31 28 36 31 15 13 18 23 22 20 34 47 40 26 8 9 11 10 9 8 5 15 7 11 13 8 5 3 6 9 5 10 11 14 18 16 20 21 23 25
38 39 40 37 35 23 19 32 30 12 9 5 7 29 28 32 42 35 22 8 10 15 11 11 8 6 10 7 3 8 6 7 9 9 6 26 12 17 22 24 26 29 31 33
35 34 29 29 27 29 17 13 32 21 6 5 5 11 35 19 22 31 35 19 14 9 8 10 6 5 2 0 4 11 4 7 9 7 13 13 29 26 36 41 42 38 38 41
32 33 29 24 23 31 16 13 19 20 4 5 4 4 18 26 10 15 26 24 25 14 9 8 7 5 2 9 8 27 28 29 26 16 29 43 53 50 38 37 38 38 43 47
29 28 21 21 19 23 18 13 25 16 6 3 4 1 15 43 23 13 13 19 16 11 7 9 4 3 3 6 15 47 48 42 39 38 34 35 22 35 50 53 50 49 53 54
20 18 12 11 19 16 19 22 31 20 9 12 7 10 8 40 16 13 23 13 7 16 6 5 6 2 4 6 34 34 48 46 30 36 48 54 55 53 48 48 48 50 53 50
12 11 11 11 17 13 15 16 19 26 21 11 10 13 10 29 15 12 12 11 4 7 6 5 6 2 7 16 44 39 52 43 52 58 53 44 47 57 57 53 53 55 60 56
9 13 10 11 17 17 14 14 15 16 18 14 10 9 8 20 16 8 18 8 5 2 4 10 4 4 5 23 59 41 61 57 56 52 57 58 58 57 59 59 55 57 63 64
10 8 10 13 26 18 14 17 18 17 9 14 10 11 15 16 7 8 11 6 6 3 5 7 3 2 21 54 64 58 61 63 58 51 53 53 52 57 60 62 60 60 59 61
17 16 18 17 18 19 14 9 9 11 9 18 18 23 10 8 8 7 7 5 3 5 12 4 4 6 49 68 68 66 63 64 65 58 60 59 55 54 56 61 62 62 59 58
16 11 11 15 20 16 13 17 8 13 20 17 32 16 11 8 5 7 6 7 6 9 3 7 4 46 68 70 69 68 65 64 62 61 58 55 55 54 51 56 55 56 58 55
13 13 14 10 10 11 6 10 17 19 23 34 29 11 7 7 7 5 8 6 5 11 10 10 20 64 74 72 70 69 73 69 68 64 62 61 62 59 55 52 52 51 50 52
13 13 9 7 4 9 19 26 25 21 32 23 10 8 4 5 5 5 7 14 11 8 11 18 62 75 73 74 73 72 71 71 68 64 63 64 59 58 62 58 54 53 53 51
14 15 11 9 5 16 28 35 27 42 33 11 6 6 6 10 7 12 10 16 8 14 31 64 72 74 76 74 72 71 69 70 64 62 62 61 62 62 64 59 55 57 59 58
10 10 19 21 16 15 26 31 38 39 24 14 8 10 10 11 8 10 7 9 18 59 67 66 66 72 77 75 74 72 73 71 63 65 63 61 60 61 60 57 61 61 59 53
Wind_Direction_850mb
333 334 338 341 342 347 359 32 22 351 350 312 27 334 350 324 330 335 316 301 314 317 332 301 294 281 285 0 333 281 240 186 230 207 72 49 265 228 209 218 188 229 268 123
342 348 352 356 356 354 357 41 26 6 37 38 344 324 318 344 337 352 348 321 352 359 304 303 307 315 347 4 5 344 337 334 222 149 131 79 30 12 347 325 61 189 210 148
8 9 10 7 4 5 23 41 29 30 51 47 348 357 360 337 338 331 353 329 349 340 308 340 324 345 328 344 1 346 53 62 58 343 29 355 41 14 2 337 215 103 47 135
19 20 18 15 13 22 65 35 53 15 8 6 353 1 3 343 356 352 355 353 350 339 291 322 0 0 336 341 358 343 64 77 81 88 74 73 60 45 44 54 8 28 134 126
41 38 27 20 19 28 49 55 27 58 38 345 1 8 22 334 342 310 338 343 335 8 4 5 321 343 7 36 325 345 13 134 123 96 81 72 56 30 43 40 58 75 94 89
44 42 38 38 39 47 72 78 74 97 22 350 350 12 339 319 339 257 263 327 318 287 338 314 294 272 189 1 6 340 334 164 203 160 266 303 31 8 30 53 39 3 84 96
49 49 49 47 45 47 67 93 90 83 41 29 21 347 321 298 309 273 304 321 323 333 313 306 265 247 239 258 20 20 340 329 7 74 318 50 76 57 74 76 43 61 82 74
54 53 53 50 50 49 52 82 95 100 83 341 2 345 335 312 319 270 269 292 300 318 314 312 331 66 24 330 3 14 358 298 63 85 58 151 130 41 1 349 51 29 78 52
50 50 49 49 47 47 56 72 91 96 107 15 317 319 342 343 341 326 279 322 338 335 277 3 20 25 320 341 337 1 1 26 62 34 54 52 33 20 350 302 82 149 78 26
50 48 45 49 52 49 56 68 81 93 95 27 26 16 321 328 308 280 296 337 345 354 12 46 20 41 323 10 6 341 346 4 38 43 87 93 14 338 330 285 44 170 265 308
47 48 48 48 47 46 44 69 74 84 95 61 50 40 25 351 350 343 331 307 18 358 40 27 22 30 29 342 47 346 5 340 18 358 61 49 1 306 329 348 259 245 266 292
50 46 39 35 39 45 41 69 67 75 82 81 51 39 31 25 9 335 0 55 352 7 336 42 49 34 23 276 34 16 16 16 337 17 23 325 297 265 278 295 276 285 283 287
36 34 32 27 23 31 39 43 50 60 77 65 37 18 30 33 28 27 7 40 20 21 67 34 60 72 318 17 25 309 119 156 307 309 172 272 269 264 268 271 270 274 275 281
20 15 10 13 18 16 23 34 42 57 94 85 51 29 30 29 31 34 36 28 37 54 41 57 47 69 3 44 9 9 3 286 337 260 264 308 280 282 290 288 288 283 283 281
5 7 0 359 9 12 15 23 31 28 89 92 132 32 26 18 29 36 41 38 53 36 50 46 58 62 296 87 250 26 346 340 336 309 315 271 288 298 300 296 294 290 283 284
346 354 358 10 16 14 20 4 2 10 73 120 165 157 17 19 11 19 35 42 45 57 61 78 75 48 355 18 11 23 352 307 296 267 293 291 297 297 297 288 300 297 287 286
329 345 3 23 27 25 51 61 6 23 57 61 104 112 359 11 25 7 17 21 39 57 77 57 49 66 270 40 14 340 336 332 315 306 302 304 315 303 306 304 305 298 292 292
322 343 12 28 25 35 44 40 26 20 52 56 34 335 312 9 356 1 1 356 17 31 69 59 5 257 250 28 349 341 346 337 326 326 309 304 304 305 313 309 306 299 298 301
343 1 38 38 20 23 21 29 36 36 52 82 58 354 337 344 8 348 341 355 20 20 39 38 313 141 48 327 338 327 347 334 321 328 328 323 314 313 314 314 311 304 307 307
51 47 41 33 1 18 28 26 20 28 37 51 76 353 330 336 339 0 348 7 30 2 32 325 274 60 352 360 352 334 339 335 335 324 325 323 315 313 312 309 308 301 304 308
50 56 59 32 32 32 33 28 29 357 43 17 2 13 336 343 340 330 6 332 336 311 35 330 10 105 349 350 347 340 338 340 334 329 324 319 313 310 309 308 306 305 304 301
78 95 72 34 33 27 41 13 5 17 3 353 353 339 330 320 340 306 340 313 277 359 332 281 5 25 350 345 342 340 338 336 333 331 327 326 322 318 313 311 312 312 309 304
64 53 52 25 20 33 29 356 337 327 350 359 335 327 331 323 334 290 310 320 358 304 271 8 8 347 341 339 337 335 336 336 334 330 329 326 325 323 321 316 320 320 317 317
54 48 33 40 22 30 349 313 308 308 313 325 326 304 317 321 315 316 310 15 283 358 341 355 338 335 332 333 333 333 333 335 333 334 333 332 331 332 332 329 326 322 320 319
67 60 59 65 59 1 339 339 337 333 329 330 328 291 312 323 310 348 327 352 353 11 337 319 325 326 328 329 331 330 331 331 332 334 333 332 335 337 334 335 335 333 329 329
57 56 86 102 67 10 360 354 348 347 351 3 353 309 341 36 335 1 19 339 316 327 320 319 320 322 324 326 326 328 327 328 332 333 333 333 338 336 331 332 330 332 332 330
64 72 94 98 82 39 9 4 354 360 8 9 346 25 0 290 344 349 359 342 316 312 313 314 316 318 319 322 324 327 329 334 332 334 337 335 337 336 335 332 335 337 337 334